User: anonymous   Login
Location: Fours
(44.3167°N, 6.7000°E)
Time: 04:09:56
(UTC+00:00)
Language:

Cosmos 1470 Rocket - Orbit

View from above orbital plane
View from above orbital plane
View from above satellite
View from above satellite

Ground track
Ground track

The orbit data is extracted from the following two-line orbital elements,

1 14148U 83061B   21059.56217635  .00000088  00000-0  78358-5 0  9990
2 14148  82.5159  82.8263 0021244 191.0663 328.9405 14.83367168 14180
Epoch (UTC): 28 February 2021 13:29:32
Eccentricity: 0.0021244
inclination: 82.5159°
perigee height: 604 km
apogee height: 633 km
right ascension of ascending node: 82.8263°
argument of perigee: 191.0663°
revolutions per day: 14.83367168
mean anomaly at epoch: 328.9405°
orbit number at epoch: 1418

The dashed part of the orbit path shows where the satellite is in the earth's shadow,  

DLR